Time,TemperatureF,DewpointF,PressureIn,WindDirection,WindDirectionDegrees,WindSpeedMPH,WindSpeedGustMPH,Humidity,HourlyPrecipIn,Conditions,Clouds,dailyrainin,SoftwareType,DateUTC
2013-05-06 00:10:00,43.0,42.0,-100.00,SW,225,2.0,2.0,99,-99.99,,,-99.99,,2013-05-06 05:10:00,
2013-05-06 00:32:00,43.0,42.0,-100.00,SW,225,2.0,2.0,99,-99.99,,,-99.99,,2013-05-06 05:32:00,
2013-05-06 00:42:00,43.0,42.0,-100.00,SW,225,2.0,2.0,99,-99.99,,,-99.99,,2013-05-06 05:42:00,
2013-05-06 00:52:00,43.0,42.0,-100.00,SW,225,2.0,2.0,99,-99.99,,,-99.99,,2013-05-06 05:52:00,
2013-05-06 01:02:00,43.0,42.0,-100.00,SW,225,2.0,2.0,99,-99.99,,,-99.99,,2013-05-06 06:02:00,
2013-05-06 01:32:00,42.0,42.0,-100.00,South,170,4.0,4.0,99,-99.99,,,-99.99,,2013-05-06 06:32:00,
2013-05-06 01:42:00,42.0,42.0,-100.00,South,170,4.0,4.0,99,-99.99,,,-99.99,,2013-05-06 06:42:00,
2013-05-06 01:52:00,42.0,42.0,-100.00,South,170,4.0,4.0,99,-99.99,,,-99.99,,2013-05-06 06:52:00,
2013-05-06 02:01:00,42.0,42.0,-100.00,South,170,4.0,4.0,99,-99.99,,,-99.99,,2013-05-06 07:01:00,
2013-05-06 02:32:00,40.0,40.0,-100.00,WSW,245,3.0,3.0,99,-99.99,,,-99.99,,2013-05-06 07:32:00,
2013-05-06 02:42:00,40.0,40.0,-100.00,WSW,245,3.0,3.0,99,-99.99,,,-99.99,,2013-05-06 07:42:00,
2013-05-06 02:52:00,40.0,40.0,-100.00,WSW,245,3.0,3.0,99,-99.99,,,-99.99,,2013-05-06 07:52:00,
2013-05-06 03:02:00,40.0,40.0,-100.00,WSW,245,3.0,3.0,99,-99.99,,,-99.99,,2013-05-06 08:02:00,
2013-05-06 03:32:00,40.0,39.0,-100.00,SW,220,6.0,6.0,99,-99.99,,,-99.99,,2013-05-06 08:32:00,
2013-05-06 03:42:00,40.0,39.0,-100.00,SW,220,6.0,6.0,99,-99.99,,,-99.99,,2013-05-06 08:42:00,
2013-05-06 03:52:00,40.0,39.0,-100.00,SW,220,6.0,6.0,99,-99.99,,,-99.99,,2013-05-06 08:52:00,
2013-05-06 04:01:00,40.0,39.0,-100.00,SW,220,6.0,6.0,99,-99.99,,,-99.99,,2013-05-06 09:01:00,
2013-05-06 04:33:00,38.0,38.0,-100.00,West,265,2.0,2.0,99,-99.99,,,-99.99,,2013-05-06 09:33:00,
2013-05-06 04:43:00,38.0,38.0,-100.00,West,265,2.0,2.0,99,-99.99,,,-99.99,,2013-05-06 09:43:00,
2013-05-06 04:53:00,38.0,38.0,-100.00,West,265,2.0,2.0,99,-99.99,,,-99.99,,2013-05-06 09:53:00,
2013-05-06 05:02:00,38.0,38.0,-100.00,West,265,2.0,2.0,99,-99.99,,,-99.99,,2013-05-06 10:02:00,
2013-05-06 05:10:00,40.0,40.0,-100.00,West,280,4.0,5.0,99,-99.99,,,-99.99,,2013-05-06 10:10:00,
2013-05-06 05:33:00,40.0,40.0,-100.00,West,280,4.0,5.0,99,-99.99,,,-99.99,,2013-05-06 10:33:00,
2013-05-06 05:42:00,40.0,40.0,-100.00,West,280,4.0,5.0,99,-99.99,,,-99.99,,2013-05-06 10:42:00,
2013-05-06 05:52:00,40.0,40.0,-100.00,West,280,4.0,5.0,99,-99.99,,,-99.99,,2013-05-06 10:52:00,
2013-05-06 06:02:00,40.0,40.0,-100.00,West,280,4.0,5.0,99,-99.99,,,-99.99,,2013-05-06 11:02:00,
2013-05-06 06:10:00,39.0,39.0,-100.00,SW,220,3.0,3.0,99,-99.99,,,-99.99,,2013-05-06 11:10:00,
2013-05-06 06:32:00,39.0,39.0,-100.00,SW,220,3.0,3.0,99,-99.99,,,-99.99,,2013-05-06 11:32:00,
2013-05-06 06:42:00,39.0,39.0,-100.00,SW,220,3.0,3.0,99,-99.99,,,-99.99,,2013-05-06 11:42:00,
2013-05-06 06:52:00,39.0,39.0,-100.00,SW,220,3.0,3.0,99,-99.99,,,-99.99,,2013-05-06 11:52:00,
2013-05-06 07:01:00,39.0,39.0,-100.00,SW,220,3.0,3.0,99,-99.99,,,-99.99,,2013-05-06 12:01:00,
2013-05-06 07:32:00,41.0,41.0,-100.00,South,190,2.0,2.0,99,-99.99,,,-99.99,,2013-05-06 12:32:00,
2013-05-06 07:42:00,41.0,41.0,-100.00,South,190,2.0,2.0,99,-99.99,,,-99.99,,2013-05-06 12:42:00,
2013-05-06 07:52:00,41.0,41.0,-100.00,South,190,2.0,2.0,99,-99.99,,,-99.99,,2013-05-06 12:52:00,
2013-05-06 08:01:00,41.0,41.0,-100.00,South,190,2.0,2.0,99,-99.99,,,-99.99,,2013-05-06 13:01:00,
2013-05-06 08:10:00,50.0,49.0,-100.00,SW,225,2.0,2.0,99,-99.99,,,-99.99,,2013-05-06 13:10:00,
2013-05-06 08:32:00,50.0,49.0,-100.00,SW,225,2.0,2.0,99,-99.99,,,-99.99,,2013-05-06 13:32:00,
2013-05-06 08:42:00,50.0,49.0,-100.00,SW,225,2.0,2.0,99,-99.99,,,-99.99,,2013-05-06 13:42:00,
2013-05-06 08:52:00,50.0,49.0,-100.00,SW,225,2.0,2.0,99,-99.99,,,-99.99,,2013-05-06 13:52:00,
2013-05-06 09:01:00,50.0,49.0,-100.00,SW,225,2.0,2.0,99,-99.99,,,-99.99,,2013-05-06 14:01:00,
2013-05-06 09:11:00,57.0,47.0,-100.00,SW,215,2.0,3.0,71,-99.99,,,-99.99,,2013-05-06 14:11:00,
2013-05-06 09:32:00,57.0,47.0,-100.00,SW,215,2.0,3.0,71,-99.99,,,-99.99,,2013-05-06 14:32:00,
2013-05-06 09:42:00,57.0,47.0,-100.00,SW,215,2.0,3.0,71,-99.99,,,-99.99,,2013-05-06 14:42:00,
2013-05-06 09:52:00,57.0,47.0,-100.00,SW,215,2.0,3.0,71,-99.99,,,-99.99,,2013-05-06 14:52:00,
2013-05-06 10:01:00,57.0,47.0,-100.00,SW,215,2.0,3.0,71,-99.99,,,-99.99,,2013-05-06 15:01:00,
2013-05-06 10:33:00,60.0,43.0,-100.00,NW,305,2.0,4.0,54,-99.99,,,-99.99,,2013-05-06 15:33:00,
2013-05-06 10:43:00,60.0,43.0,-100.00,NW,305,2.0,4.0,54,-99.99,,,-99.99,,2013-05-06 15:43:00,
2013-05-06 10:53:00,60.0,43.0,-100.00,NW,305,2.0,4.0,54,-99.99,,,-99.99,,2013-05-06 15:53:00,
2013-05-06 11:03:00,60.0,43.0,-100.00,NW,305,2.0,4.0,54,-99.99,,,-99.99,,2013-05-06 16:03:00,
2013-05-06 11:11:00,62.0,41.0,-100.00,WSW,250,4.0,6.0,46,-99.99,,,-99.99,,2013-05-06 16:11:00,
2013-05-06 11:33:00,62.0,41.0,-100.00,WSW,250,4.0,6.0,46,-99.99,,,-99.99,,2013-05-06 16:33:00,
2013-05-06 11:42:00,62.0,41.0,-100.00,WSW,250,4.0,6.0,46,-99.99,,,-99.99,,2013-05-06 16:42:00,
2013-05-06 11:52:00,62.0,41.0,-100.00,WSW,250,4.0,6.0,46,-99.99,,,-99.99,,2013-05-06 16:52:00,
2013-05-06 12:03:00,62.0,41.0,-100.00,WSW,250,4.0,6.0,46,-99.99,,,-99.99,,2013-05-06 17:03:00,
2013-05-06 12:32:00,64.0,41.0,-100.00,SSW,195,6.0,7.0,42,-99.99,,,-99.99,,2013-05-06 17:32:00,
2013-05-06 12:42:00,64.0,41.0,-100.00,SSW,195,6.0,7.0,42,-99.99,,,-99.99,,2013-05-06 17:42:00,
2013-05-06 12:52:00,64.0,41.0,-100.00,SSW,195,6.0,7.0,42,-99.99,,,-99.99,,2013-05-06 17:52:00,
2013-05-06 13:01:00,64.0,41.0,-100.00,SSW,195,6.0,7.0,42,-99.99,,,-99.99,,2013-05-06 18:01:00,
2013-05-06 13:32:00,68.0,41.0,-100.00,SSW,205,3.0,4.0,38,-99.99,,,-99.99,,2013-05-06 18:32:00,
2013-05-06 13:43:00,68.0,41.0,-100.00,SSW,205,3.0,4.0,38,-99.99,,,-99.99,,2013-05-06 18:43:00,
2013-05-06 13:52:00,68.0,41.0,-100.00,SSW,205,3.0,4.0,38,-99.99,,,-99.99,,2013-05-06 18:52:00,
2013-05-06 14:01:00,68.0,41.0,-100.00,SSW,205,3.0,4.0,38,-99.99,,,-99.99,,2013-05-06 19:01:00,
2013-05-06 14:32:00,70.0,39.0,-100.00,SSW,195,3.0,4.0,33,-99.99,,,-99.99,,2013-05-06 19:32:00,
2013-05-06 14:42:00,70.0,39.0,-100.00,SSW,195,3.0,4.0,33,-99.99,,,-99.99,,2013-05-06 19:42:00,
2013-05-06 14:52:00,70.0,39.0,-100.00,SSW,195,3.0,4.0,33,-99.99,,,-99.99,,2013-05-06 19:52:00,
2013-05-06 15:02:00,70.0,39.0,-100.00,SSW,195,3.0,4.0,33,-99.99,,,-99.99,,2013-05-06 20:02:00,
2013-05-06 15:10:00,71.0,40.0,-100.00,ESE,110,1.0,1.0,32,-99.99,,,-99.99,,2013-05-06 20:10:00,
2013-05-06 15:32:00,71.0,40.0,-100.00,ESE,110,1.0,1.0,32,-99.99,,,-99.99,,2013-05-06 20:32:00,
2013-05-06 15:42:00,71.0,40.0,-100.00,ESE,110,1.0,1.0,32,-99.99,,,-99.99,,2013-05-06 20:42:00,
2013-05-06 15:52:00,71.0,40.0,-100.00,ESE,110,1.0,1.0,32,-99.99,,,-99.99,,2013-05-06 20:52:00,
2013-05-06 16:01:00,71.0,40.0,-100.00,ESE,110,1.0,1.0,32,-99.99,,,-99.99,,2013-05-06 21:01:00,
2013-05-06 16:11:00,71.0,39.0,-100.00,South,180,2.0,3.0,31,-99.99,,,-99.99,,2013-05-06 21:11:00,
2013-05-06 16:33:00,71.0,39.0,-100.00,South,180,2.0,3.0,31,-99.99,,,-99.99,,2013-05-06 21:33:00,
2013-05-06 16:43:00,71.0,39.0,-100.00,South,180,2.0,3.0,31,-99.99,,,-99.99,,2013-05-06 21:43:00,
2013-05-06 16:53:00,71.0,39.0,-100.00,South,180,2.0,3.0,31,-99.99,,,-99.99,,2013-05-06 21:53:00,
2013-05-06 17:03:00,71.0,39.0,-100.00,South,180,2.0,3.0,31,-99.99,,,-99.99,,2013-05-06 22:03:00,
2013-05-06 17:33:00,72.0,38.0,-100.00,WNW,290,3.0,5.0,30,-99.99,,,-99.99,,2013-05-06 22:33:00,
2013-05-06 17:45:00,72.0,38.0,-100.00,WNW,290,3.0,5.0,30,-99.99,,,-99.99,,2013-05-06 22:45:00,
2013-05-06 17:52:00,72.0,38.0,-100.00,WNW,290,3.0,5.0,30,-99.99,,,-99.99,,2013-05-06 22:52:00,
2013-05-06 18:03:00,72.0,38.0,-100.00,WNW,290,3.0,5.0,30,-99.99,,,-99.99,,2013-05-06 23:03:00,
2013-05-06 18:10:00,71.0,38.0,-100.00,SE,145,7.0,8.0,30,-99.99,,,-99.99,,2013-05-06 23:10:00,
2013-05-06 18:32:00,71.0,38.0,-100.00,SE,145,7.0,8.0,30,-99.99,,,-99.99,,2013-05-06 23:32:00,
2013-05-06 18:42:00,71.0,38.0,-100.00,SE,145,7.0,8.0,30,-99.99,,,-99.99,,2013-05-06 23:42:00,
2013-05-06 18:52:00,71.0,38.0,-100.00,SE,145,7.0,8.0,30,-99.99,,,-99.99,,2013-05-06 23:52:00,
2013-05-06 19:01:00,71.0,38.0,-100.00,SE,145,7.0,8.0,30,-99.99,,,-99.99,,2013-05-07 00:01:00,
2013-05-06 19:10:00,70.0,37.0,-100.00,SSW,195,4.0,4.0,30,-99.99,,,-99.99,,2013-05-07 00:10:00,
2013-05-06 19:32:00,70.0,37.0,-100.00,SSW,195,4.0,4.0,30,-99.99,,,-99.99,,2013-05-07 00:32:00,
2013-05-06 19:42:00,70.0,37.0,-100.00,SSW,195,4.0,4.0,30,-99.99,,,-99.99,,2013-05-07 00:42:00,
2013-05-06 19:52:00,70.0,37.0,-100.00,SSW,195,4.0,4.0,30,-99.99,,,-99.99,,2013-05-07 00:52:00,
2013-05-06 20:01:00,70.0,37.0,-100.00,SSW,195,4.0,4.0,30,-99.99,,,-99.99,,2013-05-07 01:01:00,
2013-05-06 20:10:00,67.0,40.0,-100.00,South,180,3.0,4.0,38,-99.99,,,-99.99,,2013-05-07 01:10:00,
2013-05-06 20:32:00,67.0,40.0,-100.00,South,180,3.0,4.0,38,-99.99,,,-99.99,,2013-05-07 01:32:00,
2013-05-06 20:42:00,67.0,40.0,-100.00,South,180,3.0,4.0,38,-99.99,,,-99.99,,2013-05-07 01:42:00,
2013-05-06 20:53:00,67.0,40.0,-100.00,South,180,3.0,4.0,38,-99.99,,,-99.99,,2013-05-07 01:53:00,
2013-05-06 21:02:00,67.0,40.0,-100.00,South,180,3.0,4.0,38,-99.99,,,-99.99,,2013-05-07 02:02:00,
2013-05-06 21:10:00,61.0,42.0,-100.00,SE,130,5.0,6.0,51,-99.99,,,-99.99,,2013-05-07 02:10:00,
2013-05-06 21:32:00,61.0,42.0,-100.00,SE,130,5.0,6.0,51,-99.99,,,-99.99,,2013-05-07 02:32:00,
2013-05-06 21:42:00,61.0,42.0,-100.00,SE,130,5.0,6.0,51,-99.99,,,-99.99,,2013-05-07 02:42:00,
2013-05-06 21:52:00,61.0,42.0,-100.00,SE,130,5.0,6.0,51,-99.99,,,-99.99,,2013-05-07 02:52:00,
2013-05-06 22:01:00,61.0,42.0,-100.00,SE,130,5.0,6.0,51,-99.99,,,-99.99,,2013-05-07 03:01:00,
2013-05-06 22:32:00,57.0,46.0,-100.00,SSE,155,6.0,6.0,68,-99.99,,,-99.99,,2013-05-07 03:32:00,
2013-05-06 22:43:00,57.0,46.0,-100.00,SSE,155,6.0,6.0,68,-99.99,,,-99.99,,2013-05-07 03:43:00,
2013-05-06 22:53:00,57.0,46.0,-100.00,SSE,155,6.0,6.0,68,-99.99,,,-99.99,,2013-05-07 03:53:00,
2013-05-06 23:02:00,57.0,46.0,-100.00,SSE,155,6.0,6.0,68,-99.99,,,-99.99,,2013-05-07 04:02:00,
2013-05-06 23:33:00,53.0,48.0,-100.00,South,170,7.0,7.0,84,-99.99,,,-99.99,,2013-05-07 04:33:00,
2013-05-06 23:42:00,53.0,48.0,-100.00,South,170,7.0,7.0,84,-99.99,,,-99.99,,2013-05-07 04:42:00,
2013-05-06 23:53:00,53.0,48.0,-100.00,South,170,7.0,7.0,84,-99.99,,,-99.99,,2013-05-07 04:53:00,